Flag for United Kingdom Weather past 2 weeks in Bridlington, England, United Kingdom

Now
62 °F

Cool.


Feels Like: 62 °F
Forecast: 58 / 67 °F
Wind: 13 mph from Southwest

Location: Bridlington Mrsc

Current Time: Jul 6, 2015 at 7:42:54 PM

Latest Report: Jul 6, 2015 at 7:00 PM


Visibility: N/A

Pressure: 29.93 "Hg

Humidity: 78%

Dew point: 55 °F

Location of BridlingtonLocation

Historic Weather in Bridlington — Graph

°F

Bridlington temperature yesterday

Maximum temperature yesterday: 65 °F (at 11:00 AM)
Minimum temperature yesterday: 53 °F (at 11:00 PM)
Average temperature yesterday: 59 °F

Past Weeks' High & Low Weather Summary

 TemperatureHumidityPressure
High79 °F (Jul 4, 5:00 PM)100% (Jun 22, 8:00 PM)30.30 "Hg (Jun 22, 8:00 PM)
Low45 °F (Jun 24, 4:00 AM)52% (Jun 24, 3:00 PM)29.72 "Hg (Jun 22, 11:00 AM)
Average58 °F84%30.03 "Hg
* Reported Jun 21 7:00 PM — Jul 6 6:00 PM, Bridlington, Weather by CustomWeather, © 2015

Note: Actual official high and low records may vary slightly from our data, if they occured in-between our weather recording intervals... More about our weather records

Advertising

Bridlington weather history for previous 24 hours

 ConditionsComfort  
Time TempWeatherWind HumidityBarometerVisibility
6:00 PM
Mon, Jul 6
62 °FCool.18 mph75%29.94 "HgN/A
5:00 PM64 °FMild.15 mph70%29.98 "HgN/A
4:00 PM64 °FMild.13 mph68%30.00 "HgN/A
3:00 PM65 °FMild.13 mph61%30.00 "HgN/A
2:00 PM65 °FMild.13 mph62%30.00 "HgN/A
1:00 PM65 °FMild.13 mph65%30.00 "HgN/A
12:00 PM66 °FMild.13 mph66%30.01 "HgN/A
11:00 AM65 °FMild.8 mph70%30.01 "HgN/A
10:00 AM65 °FMild.9 mph72%30.01 "HgN/A
9:00 AM62 °FMild.9 mph79%30.01 "HgN/A
8:00 AM58 °FCool.9 mph86%30.01 "HgN/A
7:00 AM54 °FCool.6 mph96%30.00 "HgN/A
6:00 AM50 °FCool.6 mph100%29.99 "HgN/A
5:00 AM49 °FCool.6 mph100%29.99 "HgN/A
3:00 AM50 °FCool.3 mph100%29.98 "HgN/A
2:00 AM50 °FCool.2 mph100%29.97 "HgN/A
1:00 AM51 °FCool.2 mph100%29.97 "HgN/A
12:00 AM53 °FCool.6 mph100%29.96 "HgN/A
11:00 PM
Sun, Jul 5
53 °FCool.6 mph99%29.95 "HgN/A
10:00 PM55 °FCool.5 mph97%29.94 "HgN/A
9:00 PM57 °FCool.6 mph89%29.92 "HgN/A
8:00 PM58 °FCool.6 mph83%29.91 "HgN/A
7:00 PM58 °FCool.8 mph90%29.92 "HgN/A
Weather by CustomWeather, © 2015

See weather overviewHow to use our weather pages